CW5306 Weather Reports


time (UTC)temp
C
wind
direction
speed
KPH
gust
KPH
rain 1hr
cm
rain 24hr
cm
rain mn
cm
humidity
%
barometer
mb
20260905002228 27 95 17.7 33.8 0.00 0.18 0.08 63 1011.8
20260905001729 28 85 17.7 33.8 0.00 0.18 0.08 65 1012.1
20260905001227 28 99 20.9 38.6 0.00 0.18 0.08 65 1011.9
20260905000727 28 97 12.9 38.6 0.00 0.18 0.08 65 1012.0
20260905000501 28 107 17.7 33.8 0.00 0.18 0.08 64 1012.2
20260904235727 28 116 14.5 33.8 0.00 0.18 0.08 65 1012.4
20260904235228 28 105 17.7 37.0 0.00 0.18 0.08 64 1012.4
20260904234728 28 70 20.9 37.0 0.00 0.18 0.08 63 1012.5
20260904234228 28 112 17.7 32.2 0.00 0.18 0.08 64 1012.6
20260904233959 28 83 19.3 38.6 0.00 0.18 0.08 63 1012.7
20260904233228 28 91 20.9 38.6 0.00 0.18 0.08 62 1012.7
20260904232959 28 89 24.1 33.8 0.00 0.18 0.08 63 1013.0
20260904232228 28 90 14.5 41.8 0.00 0.18 0.08 64 1012.7
20260904231733 28 83 20.9 38.6 0.00 0.18 0.08 67 1013.0
20260904231727 28 99 17.7 41.8 0.00 0.18 0.08 66 1013.0
20260904230727 28 99 12.9 38.6 0.00 0.18 0.08 70 1012.9
20260904230227 28 86 20.9 37.0 0.00 0.18 0.08 69 1012.9
20260904225728 28 52 14.5 37.0 0.00 0.18 0.08 68 1012.9
20260904225234 27 122 19.3 40.2 0.00 0.18 0.08 69 1013.0
20260904225228 28 84 17.7 40.2 0.00 0.18 0.08 69 1013.0
20260904224229 28 132 19.3 37.0 0.00 0.18 0.08 67 1013.1
20260904223727 28 77 12.9 38.6 0.00 0.18 0.08 68 1013.1
20260904223227 28 104 16.1 38.6 0.00 0.18 0.08 68 1013.2
20260904222727 28 61 12.9 37.0 0.00 0.18 0.08 68 1013.7
20260904222229 28 102 20.9 40.2 0.00 0.18 0.08 69 1013.1
20260904221727 27 96 20.9 41.8 0.00 0.18 0.08 70 1013.5
20260904221228 27 102 20.9 41.8 0.00 0.18 0.08 69 1013.3
20260904220728 28 77 16.1 38.6 0.00 0.18 0.08 68 1013.4
20260904220228 28 71 24.1 41.8 0.00 0.18 0.08 68 1013.5
20260904215729 28 79 19.3 41.8 0.00 0.18 0.08 69 1013.5
20260904215228 28 53 14.5 37.0 0.00 0.18 0.08 71 1013.5
20260904214728 28 102 22.5 37.0 0.00 0.18 0.08 71 1013.5
20260904214227 27 83 25.7 37.0 0.00 0.18 0.08 70 1013.6
20260904213727 27 93 25.7 46.7 0.00 0.18 0.08 71 1013.6
20260904213227 27 79 30.6 41.8 0.00 0.18 0.08 71 1013.2
20260904212729 27 75 22.5 41.8 0.00 0.18 0.08 72 1013.8
20260904212228 27 84 22.5 41.8 0.00 0.18 0.08 72 1013.6
20260904211729 27 46 12.9 41.8 0.00 0.18 0.08 72 1013.6
20260904211228 27 120 20.9 38.6 0.00 0.18 0.08 71 1013.6
20260904210727 27 84 22.5 38.6 0.00 0.18 0.08 71 1013.6
20260904210228 27 79 17.7 33.8 0.00 0.18 0.08 71 1014.0
20260904205727 27 72 17.7 37.0 0.00 0.18 0.08 72 1014.0
20260904205227 27 93 17.7 41.8 0.00 0.18 0.08 70 1013.6
20260904204728 27 59 25.7 41.8 0.00 0.18 0.08 71 1013.7
20260904204500 27 65 19.3 38.6 0.00 0.18 0.08 72 1013.9
20260904204336 27 77 19.3 33.8 0.00 0.18 0.08 73 1013.7
20260904203458 27 47 19.3 37.0 0.00 0.18 0.08 73 1013.7
20260904202727 26 84 20.9 37.0 0.00 0.18 0.08 71 1013.8
20260904202229 27 70 22.5 37.0 0.00 0.18 0.08 73 1013.8
20260904201959 27 87 17.7 37.0 0.00 0.18 0.08 74 1013.5
20260904201228 27 84 19.3 37.0 0.00 0.18 0.08 73 1013.7
20260904200730 26 88 14.5 37.0 0.00 0.18 0.08 73 1013.5
20260904200228 26 62 12.9 40.2 0.00 0.18 0.08 74 1013.5
20260904200001 26 69 27.4 40.2 0.00 0.18 0.08 73 1013.4
20260904195228 26 85 14.5 38.6 0.00 0.18 0.08 74 1013.6
20260904194727 26 84 17.7 33.8 0.00 0.18 0.08 74 1013.5
20260904194227 26 109 20.9 33.8 0.00 0.18 0.08 75 1013.5
20260904193727 26 40 14.5 45.1 0.00 0.18 0.08 74 1013.4
20260904193227 26 77 22.5 45.1 0.00 0.18 0.08 74 1013.5
20260904192727 26 78 14.5 40.2 0.00 0.18 0.08 74 1013.6
20260904192228 26 52 20.9 40.2 0.00 0.18 0.08 74 1013.6
20260904191728 26 65 29.0 41.8 0.00 0.18 0.08 73 1013.5
20260904191228 26 81 27.4 41.8 0.00 0.18 0.08 73 1013.9
20260904190727 26 95 14.5 45.1 0.00 0.18 0.08 72 1013.7
20260904190459 26 67 20.9 45.1 0.00 0.18 0.08 73 1013.5
20260904185959 26 92 17.7 37.0 0.00 0.18 0.08 72 1013.6
20260904185227 26 74 20.9 37.0 0.00 0.18 0.08 74 1013.5
20260904184727 25 65 17.7 37.0 0.00 0.18 0.08 76 1013.6
20260904184227 25 103 9.7 40.2 0.00 0.18 0.08 76 1013.4
20260904183727 25 82 17.7 40.2 0.00 0.18 0.08 75 1013.6
20260904183227 25 51 25.7 38.6 0.00 0.18 0.08 76 1013.4
20260904182727 25 69 17.7 38.6 0.00 0.18 0.08 77 1013.7
20260904182228 25 80 17.7 32.2 0.00 0.18 0.08 76 1013.2
20260904181728 25 69 17.7 40.2 0.00 0.18 0.08 76 1013.4
20260904181227 25 94 25.7 40.2 0.00 0.18 0.08 75 1013.2
20260904180727 25 61 17.7 38.6 0.00 0.18 0.08 77 1013.1
20260904180228 25 73 22.5 38.6 0.00 0.18 0.08 78 1013.1
20260904180107 25 68 20.9 41.8 0.00 0.18 0.08 77 1013.3
20260904175959 25 86 22.5 41.8 0.00 0.18 0.08 79 1013.3
20260904174727 25 81 17.7 38.6 0.00 0.18 0.08 79 1013.2
20260904174228 25 103 12.9 40.2 0.00 0.18 0.08 80 1013.3
20260904173728 24 113 12.9 40.2 0.00 0.18 0.08 80 1013.3
20260904173227 24 63 30.6 37.0 0.00 0.18 0.08 81 1013.0
20260904172727 24 113 14.5 33.8 0.00 0.18 0.08 81 1013.1
20260904172459 24 97 8.0 32.2 0.00 0.18 0.08 80 1013.1
20260904171959 24 95 20.9 45.1 0.00 0.18 0.08 81 1013.0
20260904171229 24 58 16.1 45.1 0.00 0.18 0.08 82 1012.9
20260904170728 24 59 16.1 33.8 0.00 0.18 0.08 83 1012.8
20260904170459 24 105 12.9 33.8 0.00 0.18 0.08 83 1012.8
20260904165728 24 109 8.0 33.8 0.00 0.18 0.08 80 1012.6
20260904165228 24 101 12.9 33.8 0.00 0.18 0.08 79 1012.8
20260904164728 24 64 14.5 33.8 0.00 0.18 0.08 79 1012.6
20260904164229 24 93 14.5 27.4 0.03 0.18 0.08 79 1012.7
20260904163733 24 128 17.7 30.6 0.03 0.18 0.08 79 1012.5
20260904163728 24 131 9.7 27.4 0.03 0.18 0.08 79 1012.5
20260904162728 23 106 11.3 37.0 0.03 0.18 0.08 80 1012.8
20260904162500 23 110 12.9 37.0 0.03 0.18 0.08 83 1012.7
20260904161728 23 73 17.7 38.6 0.03 0.18 0.08 84 1012.6
20260904161233 23 96 17.7 38.6 0.03 0.20 0.08 85 1012.7
20260904161229 23 81 17.7 27.4 0.03 0.20 0.08 86 1012.6
20260904160227 23 90 17.7 32.2 0.03 0.20 0.08 86 1012.6
20260904155727 23 115 14.5 32.2 0.03 0.20 0.08 86 1012.8
20260904155228 23 109 12.9 40.2 0.03 0.20 0.08 86 1012.5
20260904154728 24 118 12.9 40.2 0.03 0.18 0.08 84 1012.8
20260904154228 25 91 19.3 33.8 0.00 0.18 0.05 83 1012.5
20260904153728 25 126 6.4 27.4 0.00 0.18 0.05 81 1012.3
20260904153227 25 71 14.5 33.8 0.00 0.18 0.05 81 1012.3
20260904152727 25 116 14.5 33.8 0.00 0.18 0.05 81 1012.3
20260904152228 24 94 12.9 27.4 0.00 0.18 0.05 82 1012.5
20260904151728 24 98 6.4 30.6 0.00 0.18 0.05 82 1012.7
20260904151228 24 79 8.0 30.6 0.00 0.18 0.05 83 1012.6
20260904150727 23 136 8.0 27.4 0.00 0.18 0.05 84 1012.6
20260904150227 23 110 11.3 25.7 0.00 0.18 0.05 87 1012.6
20260904145959 23 48 11.3 17.7 0.00 0.18 0.05 87 1012.5
20260904145458 23 117 11.3 17.7 0.00 0.18 0.05 87 1012.6
20260904144728 23 100 6.4 16.1 0.00 0.18 0.05 87 1012.6
20260904144459 23 106 6.4 20.9 0.00 0.18 0.05 86 1012.5
20260904143727 23 108 8.0 25.7 0.00 0.18 0.05 86 1012.7
20260904143228 23 69 11.3 38.6 0.00 0.18 0.05 85 1012.6
20260904142729 23 114 17.7 38.6 0.00 0.18 0.05 85 1012.6
20260904142227 23 135 12.9 38.6 0.00 0.18 0.05 85 1012.7
20260904141727 24 122 17.7 32.2 0.00 0.18 0.05 84 1012.3
20260904141500 24 104 8.0 32.2 0.00 0.18 0.05 82 1012.4
20260904140728 24 98 9.7 27.4 0.00 0.18 0.05 82 1012.5
20260904140227 23 97 12.9 30.6 0.00 0.18 0.05 83 1012.5
20260904135727 24 93 20.9 32.2 0.00 0.18 0.05 85 1012.2
20260904135229 23 103 8.0 33.8 0.00 0.18 0.05 85 1012.4
20260904134727 23 128 22.5 33.8 0.00 0.18 0.05 85 1012.4
20260904134228 23 73 11.3 20.9 0.00 0.18 0.05 87 1012.6
20260904133727 23 112 8.0 22.5 0.00 0.18 0.05 87 1012.6
20260904133228 23 88 11.3 24.1 0.00 0.18 0.05 88 1012.6
20260904133001 23 48 14.5 25.7 0.00 0.18 0.05 88 1012.6
20260904132228 23 97 17.7 27.4 0.00 0.18 0.05 88 1012.4
20260904131727 23 78 14.5 41.8 0.00 0.18 0.05 89 1012.5
20260904131228 23 93 9.7 41.8 0.00 0.18 0.05 89 1012.6
20260904130728 23 71 22.5 38.6 0.03 0.18 0.05 89 1012.5
20260904130459 22 81 12.9 33.8 0.05 0.18 0.05 90 1012.9
20260904125728 22 75 16.1 40.2 0.05 0.18 0.05 89 1012.7
20260904125227 22 57 19.3 49.9 0.05 0.18 0.05 89 1012.9
20260904124727 22 96 9.7 49.9 0.05 0.18 0.05 88 1012.8
20260904124500 22 106 24.1 38.6 0.05 0.18 0.05 89 1013.0
20260904123728 22 99 17.7 27.4 0.05 0.18 0.05 89 1013.1
20260904123227 22 130 12.9 22.5 0.05 0.18 0.05 90 1012.9
20260904122959 22 75 8.0 22.5 0.05 0.18 0.05 90 1013.2
20260904122228 22 115 12.9 27.4 0.05 0.18 0.05 90 1013.0
20260904121728 22 105 14.5 41.8 0.05 0.18 0.05 89 1013.2
20260904121228 23 121 9.7 45.1 0.05 0.18 0.05 89 1013.5
20260904120729 23 130 14.5 45.1 0.00 0.15 0.03 87 1013.5
20260904120229 24 95 20.9 32.2 0.00 0.15 0.00 85 1013.3
20260904115728 24 80 20.9 32.2 0.00 0.15 0.00 82 1013.2
20260904115228 25 156 9.7 33.8 0.00 0.15 0.00 80 1013.0
20260904114728 25 110 14.5 33.8 0.00 0.15 0.00 80 1013.2
20260904114227 25 68 19.3 30.6 0.00 0.15 0.00 79 1013.2
20260904113727 25 76 12.9 30.6 0.00 0.15 0.00 80 1013.3
20260904113227 24 132 14.5 30.6 0.00 0.15 0.00 81 1013.1
20260904112727 24 66 20.9 30.6 0.00 0.15 0.00 81 1013.2
20260904112228 24 121 14.5 27.4 0.00 0.15 0.00 81 1013.2
20260904111728 24 45 19.3 25.7 0.00 0.15 0.00 81 1013.3
20260904111228 24 96 14.5 25.7 0.00 0.15 0.00 81 1013.4
20260904110715 24 128 14.5 32.2 0.00 0.15 0.00 82 1013.4
20260904110215 23 119 9.7 40.2 0.00 0.15 0.00 82 1013.4
20260904105715 24 156 16.1 40.2 0.00 0.15 0.00 82 1013.4
20260904105216 24 85 19.3 41.8 0.00 0.15 0.00 83 1013.6
20260904104715 25 87 16.1 41.8 0.00 0.15 0.00 83 1013.6
20260904104216 25 90 12.9 37.0 0.00 0.15 0.00 79 1013.6
20260904103715 25 58 14.5 37.0 0.00 0.15 0.00 80 1013.5
20260904103203 25 74 17.7 38.6 0.00 0.15 0.00 78 1013.8
20260904102703 25 156 9.7 38.6 0.00 0.15 0.00 78 1013.7
20260904102203 25 91 8.0 32.2 0.00 0.15 0.00 77 1013.9
20260904101934 25 88 14.5 30.6 0.00 0.15 0.00 78 1014.0
20260904101435 25 86 17.7 30.6 0.00 0.15 0.00 78 1013.7
20260904100703 25 99 20.9 30.6 0.00 0.15 0.00 78 1013.7
20260904100203 25 109 12.9 30.6 0.00 0.15 0.00 79 1014.1
20260904095703 25 119 12.9 37.0 0.00 0.15 0.15 79 1013.9
20260904095151 25 90 11.3 37.0 0.00 0.15 0.15 78 1014.1
20260904094652 25 101 14.5 30.6 0.00 0.15 0.15 78 1014.2
20260904094153 25 104 17.7 37.0 0.00 0.15 0.15 79 1014.1
20260904093658 25 79 12.9 27.4 0.00 0.15 0.15 79 1014.2
20260904093652 25 69 16.1 37.0 0.00 0.15 0.15 79 1014.1
20260904092924 25 70 17.7 37.0 0.00 0.15 0.15 78 1014.3
20260904092152 25 89 20.9 37.0 0.00 0.15 0.15 79 1014.2
20260904091639 25 87 12.9 32.2 0.00 0.15 0.15 81 1014.2
20260904091139 25 89 20.9 30.6 0.00 0.15 0.15 80 1014.4
20260904090641 25 119 9.7 30.6 0.00 0.15 0.15 80 1014.3
20260904090140 25 91 11.3 33.8 0.00 0.15 0.15 80 1014.4
20260904085641 25 80 22.5 38.6 0.00 0.15 0.15 79 1014.5
20260904085140 25 132 12.9 38.6 0.00 0.15 0.15 79 1014.2
20260904084911 25 85 14.5 33.8 0.03 0.15 0.15 79 1014.5
20260904084127 25 94 17.7 38.6 0.10 0.15 0.15 80 1014.5
20260904083627 25 72 14.5 33.8 0.10 0.15 0.15 79 1014.4
20260904083127 25 74 16.1 33.8 0.10 0.15 0.15 80 1014.7
20260904082629 25 76 12.9 32.2 0.10 0.15 0.15 79 1014.8
20260904082128 24 101 20.9 32.2 0.10 0.15 0.15 80 1014.6
20260904081627 24 99 8.0 30.6 0.10 0.15 0.15 82 1014.9
20260904081129 24 79 20.9 30.6 0.10 0.15 0.15 82 1015.1
20260904080629 24 92 9.7 32.2 0.10 0.13 0.13 84 1014.8
20260904080358 24 116 11.3 32.2 0.10 0.13 0.13 85 1014.9
20260904075628 24 88 6.4 30.6 0.10 0.13 0.13 85 1015.0
20260904075128 24 89 8.0 37.0 0.10 0.13 0.13 84 1015.0
20260904074627 25 95 19.3 37.0 0.10 0.13 0.13 83 1015.1
20260904074127 25 47 16.1 30.6 0.00 0.03 0.03 80 1014.9
20260904073628 25 105 12.9 30.6 0.00 0.03 0.03 79 1014.9
20260904073128 25 100 9.7 30.6 0.00 0.03 0.03 78 1014.7
20260904072627 25 73 9.7 30.6 0.00 0.03 0.03 77 1014.8
20260904072129 25 79 9.7 25.7 0.00 0.03 0.03 79 1014.9
20260904071627 25 90 16.1 25.7 0.00 0.03 0.03 79 1014.7
20260904071128 25 186 8.0 33.8 0.00 0.03 0.03 80 1014.4
20260904070628 25 39 14.5 33.8 0.00 0.03 0.03 79 1014.4
20260904070127 25 96 19.3 30.6 0.00 0.03 0.03 77 1014.4
20260904065629 25 121 11.3 30.6 0.00 0.03 0.03 76 1014.3
20260904065128 25 46 9.7 27.4 0.00 0.03 0.03 76 1014.2
20260904064627 25 96 12.9 33.8 0.00 0.03 0.03 76 1014.2
20260904064130 25 112 19.3 32.2 0.00 0.03 0.03 76 1014.1
20260904063628 25 87 16.1 30.6 0.00 0.03 0.03 76 1014.2
20260904063128 25 92 17.7 30.6 0.00 0.03 0.03 76 1014.1
20260904062859 25 111 16.1 32.2 0.00 0.03 0.03 75 1014.2
20260904062359 25 101 16.1 32.2 0.00 0.03 0.03 76 1014.3
20260904061900 26 126 14.5 30.6 0.00 0.03 0.03 77 1014.1
20260904061736 25 103 14.5 30.6 0.00 0.03 0.03 76 1014.4
20260904060627 25 90 14.5 33.8 0.00 0.03 0.03 76 1014.4
20260904060127 25 70 17.7 33.8 0.00 0.03 0.03 76 1014.1
20260904055858 26 100 11.3 27.4 0.00 0.03 0.03 77 1014.0
20260904055116 26 120 16.1 33.8 0.00 0.03 0.03 77 1014.0
20260904054846 25 63 14.5 33.8 0.00 0.03 0.03 77 1014.1
20260904054115 26 41 9.7 32.2 0.00 0.03 0.03 77 1013.8
20260904053616 26 123 14.5 32.2 0.00 0.03 0.03 78 1013.8
20260904053117 26 107 14.5 33.8 0.00 0.03 0.03 77 1013.7
20260904052615 26 96 9.7 33.8 0.00 0.03 0.03 77 1013.9
20260904052116 26 75 16.1 32.2 0.00 0.03 0.03 77 1013.7
20260904051615 26 84 14.5 32.2 0.00 0.03 0.03 75 1013.6
20260904051347 26 58 16.1 33.8 0.00 0.03 0.03 75 1013.4
20260904050616 26 128 14.5 33.8 0.00 0.03 0.03 76 1013.4
20260904050116 26 126 22.5 30.6 0.00 0.03 0.03 75 1013.7
20260904045846 26 84 14.5 33.8 0.00 0.03 0.03 77 1013.5
20260904045336 26 99 8.0 33.8 0.00 0.03 0.03 76 1013.4
20260904044834 26 49 17.7 30.6 0.00 0.03 0.03 76 1013.4
20260904044104 26 99 12.9 30.6 0.00 0.03 0.03 76 1013.2
20260904043835 26 71 16.1 33.8 0.00 0.03 0.03 76 1013.5
20260904043105 25 105 12.9 33.8 0.00 0.03 0.03 77 1013.3
20260904042604 25 72 16.1 32.2 0.00 0.03 0.03 79 1013.2
20260904042104 25 58 12.9 30.6 0.00 0.03 0.03 80 1013.1
20260904041557 26 68 11.3 33.8 0.00 0.03 0.03 78 1013.0
20260904041552 26 111 20.9 30.6 0.00 0.03 0.03 79 1013.2
20260904040552 26 26 17.7 33.8 0.00 0.03 0.03 78 1013.1
20260904040052 26 54 20.9 33.8 0.00 0.03 0.03 78 1013.1
20260904035551 26 54 14.5 30.6 0.00 0.03 0.03 78 1012.9
20260904035051 26 102 20.9 38.6 0.00 0.03 0.03 77 1012.8
20260904034552 26 116 25.7 38.6 0.00 0.03 0.03 76 1012.9
20260904034040 26 95 17.7 32.2 0.00 0.03 0.03 75 1012.8
20260904033540 26 119 8.0 37.0 0.00 0.03 0.03 76 1012.6
20260904033040 25 119 25.7 37.0 0.00 0.03 0.03 77 1012.6
20260904032541 25 100 14.5 38.6 0.00 0.03 0.03 79 1012.7
20260904032039 26 39 16.1 38.6 0.00 0.03 0.03 80 1013.0
20260904031540 26 103 20.9 32.2 0.00 0.03 0.03 79 1012.9
20260904031041 25 102 19.3 38.6 0.00 0.03 0.03 79 1013.1
20260904030758 25 92 16.1 38.6 0.00 0.03 0.03 79 1012.8
20260904030027 25 76 19.3 32.2 0.00 0.03 0.03 80 1012.9
20260904025528 25 97 12.9 37.0 0.00 0.03 0.03 80 1012.9
20260904025028 25 81 20.9 37.0 0.00 0.03 0.03 79 1013.0
20260904024528 25 79 14.5 38.6 0.00 0.03 0.03 80 1013.2
20260904024259 25 115 16.1 38.6 0.00 0.03 0.03 80 1012.6
20260904023527 25 108 14.5 37.0 0.00 0.03 0.03 82 1012.9
20260904023027 25 98 6.4 27.4 0.00 0.03 0.03 85 1013.0
20260904022528 25 125 9.7 17.7 0.00 0.03 0.03 87 1013.2
20260904022028 24 136 9.7 17.7 0.00 0.03 0.03 88 1013.3
20260904021528 24 103 6.4 30.6 0.00 0.03 0.03 88 1013.5
20260904021028 24 164 9.7 30.6 0.00 0.03 0.03 88 1013.4
20260904020759 24 102 9.7 25.7 0.00 0.03 0.03 88 1013.5
20260904020027 24 128 16.1 32.2 0.00 0.03 0.03 88 1013.5
20260904015541 25 83 16.1 33.8 0.00 0.03 0.03 86 1013.7
20260904015535 24 118 12.9 32.2 0.00 0.03 0.03 87 1013.7
20260904015529 24 93 9.7 32.2 0.00 0.03 0.03 87 1013.8